Hourly Data Report for September 20, 2017

All times are specified in Local Standard Time (LST). Add 1 hour to adjust for Daylight Saving Time where and when it is observed.

ARVIAT A
NUNAVUT

61°05'38.000" N
94°04'18.000" W
10.40 m
2300427
71174
YEK

Related Data

No related data is available for this station

Download Data

Hourly Data (September 2017)
Hourly Data Report for September 20, 2017
Temp Definition
°C
Dew Point Temp Definition
°C
Rel Hum Definition
%
Wind Dir Definition
10's deg

Wind Spd Definition
km/h
Visibility Definition
km
Stn Press Definition
kPa
Hmdx Definition


Wind Chill Definition


Weather Definition


TIME
00:00 Legend Double Dagger 4.7 2.3 85 11 5 16.1 101.95     LegendNANA
01:00 Legend Double Dagger 4.2 2.4 88 10 4 16.1 101.94     LegendNANA
02:00 Legend Double Dagger 4.6 2.4 85 10 4 16.1 101.96     LegendNANA
03:00 Legend Double Dagger 3.5 2.8 95 35 9 16.1 101.95     LegendNANA
04:00 Legend Double Dagger 4.2 3.4 95 1 8 16.1 101.95     LegendNANA
05:00 Legend Double Dagger 5.0 3.2 88 6 8 16.1 101.94     LegendNANA
06:00 Legend Double Dagger 5.2 2.7 84 6 15 16.1 101.92     LegendNANA
07:00 Legend Double Dagger 4.5 2.7 88 7 15 16.1 101.94     LegendNANA
08:00 Legend Double Dagger 5.9 4.1 88 7 17 16.1 101.89     LegendNANA
09:00 Legend Double Dagger 4.9 4.2 95 8 22 16.1 101.88     LegendNANA
10:00 Legend Double Dagger 4.5 4.2 98 8 21 14.5 101.88     LegendNANA
11:00 Legend Double Dagger 4.9 3.5 91 9 24 16.1 101.85     LegendNANA
12:00 Legend Double Dagger 4.7 3.1 89 9 26 16.1 101.86     LegendNANA
13:00 Legend Double Dagger 4.7 3.5 92 9 26 16.1 101.78     LegendNANA
14:00 Legend Double Dagger 5.0 3.1 88 7 32 16.1 101.71     LegendNANA
15:00 Legend Double Dagger 4.7 3.2 90 8 34 16.1 101.67     LegendNANA
16:00 Legend Double Dagger 5.5 3.4 86 7 41 16.1 101.59     LegendNANA
17:00 Legend Double Dagger 4.9 2.6 85 9 43 16.1 101.56     LegendNANA
18:00 Legend Double Dagger 5.0 2.5 84 9 41 16.1 101.52     LegendNANA
19:00 Legend Double Dagger 4.2 2.4 88 7 41 16.1 101.47     LegendNANA
20:00 Legend Double Dagger 4.4 2.8 89 8 43 16.1 101.41     LegendNANA
21:00 Legend Double Dagger 4.6 2.8 88 7 48 16.1 101.32     LegendNANA
22:00 Legend Double Dagger 4.7 3.4 91 7 46 16.1 101.26     LegendNANA
23:00 Legend Double Dagger 4.7 3.5 92 7 54 16.1 101.20     LegendNANA

Notes on Data Quality.

Legend

  • E = Estimated
  • M = Missing
  • NA = Not Available
  • ‡ = Partner data that is not subject to review by the National Climate Archives
Date modified: